[[{"header":{"parameterUnit":"m.s-1","parameterCategory":2,"la1":30.2991,"la2":30.254,"lo1":-89.0895,"lo2":-89.0444,"dy":0.0017,"dx":0.0017,"nx":28,"ny":28,"refTime":"2024-10-08T21:00:00:Z","depth":"0","parameterNumber":2,"parameterNumberName":"U-component_of_CURRENTS"},"data":[0,0,0,0,0,0,0,0,0,0,0,0,0,0,0,0,0,0,0,0,0,0,0,0,0,0,0,0,0,0,0,0,0,0,0,0,0,0,0,0,0,0,0,0,0,0,0,0,0,0,0,0,0,0,0,0,0,0,-0.2139,-0.2139,0,-0.2161,-0.2162,-0.2162,-0.2099,-0.2097,-0.2095,-0.2093,-0.2015,-0.2015,-0.2015,0,0,0,0,0,0,0,0,0,0,0,0,0,-0.2105,-0.2106,-0.2139,-0.2139,-0.2139,-0.2161,-0.2162,-0.2162,-0.2099,-0.2097,-0.2095,-0.2092,-0.2015,-0.2015,-0.2015,0,0,0,0,0,0,0,0,0,0,0,0,0,-0.2123,-0.2106,-0.2139,-0.2111,-0.2108,-0.2161,-0.2162,-0.2162,-0.21,-0.2097,-0.2094,-0.2091,-0.2015,-0.2015,-0.2014,-0.207,0,0,-0.2013,-0.2013,0,0,0,0,0,0,0,0,-0.2122,-0.2124,-0.2115,-0.2113,-0.211,-0.2125,-0.2121,-0.2126,-0.2101,-0.2103,-0.2093,-0.209,-0.2045,-0.2042,-0.2054,-0.2066,-0.2063,-0.2013,-0.2013,-0.2013,-0.2013,0,0,0,0,0,0,0,-0.2121,-0.2123,-0.2147,-0.2115,-0.2113,-0.2119,-0.2118,-0.2123,-0.2088,-0.2103,-0.2098,-0.2102,-0.2042,-0.2054,-0.2051,-0.2062,-0.2013,-0.2013,-0.2013,-0.2012,-0.2079,-0.2081,0,0,0,0,0,0,-0.2118,-0.2122,-0.2147,-0.2148,-0.2109,-0.2122,-0.2121,-0.2123,-0.209,-0.2083,-0.2104,-0.2099,-0.2056,-0.2052,-0.2048,-0.2068,-0.2013,-0.2012,-0.2012,-0.2077,-0.208,-0.2082,0,0,0,0,0,0,-0.2118,-0.212,-0.2146,-0.2136,-0.2139,-0.2125,-0.2129,-0.2125,-0.2128,-0.2092,-0.2083,-0.211,-0.2054,-0.2048,-0.2054,-0.2066,-0.2012,-0.2012,-0.2075,-0.2078,-0.2081,-0.2137,0,0,0,0,0,0,-0.2117,-0.212,-0.2122,-0.2136,-0.214,-0.2174,-0.2131,-0.2127,-0.2135,-0.2128,-0.2095,-0.2084,-0.2051,-0.2055,-0.2054,-0.2064,-0.2011,-0.2072,-0.2076,-0.208,-0.2132,-0.2141,-0.2149,0,0,0,0,0,-0.2115,-0.2134,-0.2122,-0.2125,-0.2142,-0.2175,-0.2179,-0.2159,-0.2138,-0.2149,-0.2129,-0.2085,-0.2078,-0.2057,-0.2055,-0.2065,-0.207,-0.2075,-0.2079,-0.2128,-0.2139,-0.2149,0,0,0,0,0,0,-0.2121,-0.213,-0.2117,-0.2136,-0.2151,-0.2164,-0.2175,-0.2171,-0.2169,-0.2155,-0.2117,-0.2108,-0.2115,-0.2098,-0.2077,-0.21,-0.2065,-0.207,-0.2104,-0.2114,-0.2122,-0.2128,-0.2011,0,0,0,0,0,-0.2126,-0.2136,-0.215,-0.2163,-0.2172,-0.2177,-0.2188,-0.2181,-0.2183,-0.2179,-0.2158,-0.2141,-0.214,-0.2131,-0.2125,-0.2147,-0.2123,-0.2153,-0.2161,-0.2168,-0.2175,-0.2153,-0.2159,-0.2097,-0.2097,-0.2097,0,0,-0.213,-0.2137,-0.2141,-0.2164,-0.2171,-0.2198,-0.2176,-0.2199,-0.2217,-0.2173,-0.2185,-0.2171,-0.2155,-0.2168,-0.217,-0.2149,-0.2179,-0.2174,-0.218,-0.2182,-0.2158,-0.2164,-0.2169,-0.21,-0.2099,-0.2099,0,0,-0.2148,-0.2152,-0.2165,-0.2186,-0.2205,-0.2217,-0.2227,-0.2245,-0.2243,-0.2267,-0.2238,-0.224,-0.2235,-0.2227,-0.2222,-0.2284,-0.2225,-0.2276,-0.2317,-0.2296,-0.23,-0.2303,-0.2293,-0.2295,-0.2277,-0.2277,-0.2277,0,-0.2145,-0.2168,-0.2177,-0.2202,-0.222,-0.2228,-0.2256,-0.2274,-0.229,-0.2295,-0.2271,-0.2276,-0.2265,-0.2281,-0.2303,-0.2299,-0.2277,-0.2273,-0.2304,-0.2307,-0.2309,-0.2297,-0.2298,-0.228,-0.228,-0.228,-0.2279,0,-0.2172,-0.2195,-0.2211,-0.2238,-0.2266,-0.2296,-0.2322,-0.2343,-0.2343,-0.2349,-0.2361,-0.2352,-0.2347,-0.2353,-0.2348,-0.2367,-0.2343,-0.2315,-0.2271,-0.2318,-0.2304,-0.2304,-0.2285,-0.2284,-0.2283,-0.2282,0,0,-0.2136,-0.2212,-0.2213,-0.2234,-0.2288,-0.231,-0.2358,-0.2394,-0.2403,-0.2416,-0.2424,-0.2446,-0.2427,-0.2425,-0.2412,-0.2409,-0.2421,-0.2376,-0.2373,-0.2353,-0.2376,-0.2349,-0.2346,-0.2384,-0.2384,-0.2384,-0.2363,0,-0.2143,-0.2197,-0.2239,-0.229,-0.2319,-0.2359,-0.2396,-0.2429,-0.2443,-0.2453,-0.2456,-0.2453,-0.2457,-0.2443,-0.2449,-0.2423,-0.2422,-0.243,-0.2345,-0.2343,-0.2301,-0.2346,-0.2244,-0.2215,-0.2363,-0.2363,-0.2363,0,-0.2135,-0.218,-0.2233,-0.2308,-0.2322,-0.2355,-0.2402,-0.2437,-0.2469,-0.2473,-0.2483,-0.2473,-0.2493,-0.247,-0.246,-0.2458,-0.2433,-0.2411,-0.2408,-0.2362,-0.2316,-0.2191,-0.2209,-0.2198,-0.2362,-0.2362,-0.2362,0,-0.2076,-0.2166,-0.2207,-0.2233,-0.2321,-0.2347,-0.2388,-0.2432,-0.2445,-0.2474,-0.247,-0.2488,-0.2476,-0.2461,-0.2452,-0.2442,-0.2424,-0.2394,-0.2349,-0.2346,-0.2235,-0.2222,-0.2218,-0.238,-0.238,-0.238,-0.238,0,-0.2051,-0.2079,-0.2182,-0.2197,-0.2235,-0.2311,-0.2331,-0.2373,-0.2411,-0.2415,-0.2463,-0.2458,-0.2469,-0.2466,-0.2453,-0.2414,-0.2423,-0.2368,-0.234,-0.2255,-0.2245,-0.2209,-0.2219,-0.2379,-0.2379,-0.238,-0.238,0,-0.1964,-0.2034,-0.2081,-0.2179,-0.2201,-0.2222,-0.2286,-0.2291,-0.2351,-0.2356,-0.2362,-0.2422,-0.243,-0.2446,-0.2423,-0.24,-0.2327,-0.2351,-0.2265,-0.2228,-0.2165,-0.2182,-0.2132,-0.2073,-0.2286,-0.2285,-0.2284,0,-0.1922,-0.1939,-0.2034,-0.2047,-0.2087,-0.213,-0.2142,-0.2229,-0.2241,-0.2325,-0.2315,-0.2358,-0.2368,-0.2362,-0.2342,-0.2318,-0.2294,-0.2193,-0.2163,-0.2163,-0.2161,-0.2157,-0.2111,-0.204,-0.2037,-0.2035,-0.2033,0,-0.1834,-0.1867,-0.1901,-0.1938,-0.1961,-0.1986,-0.2027,-0.2033,-0.213,-0.2159,-0.2204,-0.2231,-0.2272,-0.2229,-0.2226,-0.2185,-0.2132,-0.2148,-0.2153,-0.1985,-0.1972,-0.19,-0.2072,-0.2014,-0.2016,-0.2018,-0.2019,-0.2019,-0.1748,-0.1748,-0.1788,-0.1811,-0.1829,-0.1829,-0.1808,-0.1874,-0.1892,-0.1937,-0.2046,-0.2083,-0.2104,-0.2098,-0.2074,-0.199,-0.2017,-0.1906,-0.1932,-0.1933,-0.1862,-0.2014,-0.1925,-0.1927,-0.1928,-0.1929,-0.193,0,-0.1643,-0.1648,-0.1657,-0.1673,-0.1635,-0.1695,-0.1706,-0.1674,-0.1668,-0.1778,-0.1823,-0.1912,-0.1873,-0.1909,-0.1866,-0.1793,-0.1732,-0.1741,-0.1702,-0.1667,-0.1791,-0.1766,-0.1632,-0.1632,-0.1632,-0.1632,-0.1632,-0.1632,-0.1589,-0.1551,-0.156,-0.1472,-0.1468,-0.1388,-0.1368,-0.1362,-0.141,-0.1476,-0.1588,-0.172,-0.1771,-0.1872,-0.1784,-0.1695,-0.1644,-0.1583,-0.1618,-0.1711,-0.1728,-0.1744,-0.1724,-0.1583,-0.1583,-0.141,-0.1409,-0.1408]},{"header":{"parameterUnit":"m.s-1","parameterCategory":2,"la1":30.2991,"la2":30.254,"lo1":-89.0895,"lo2":-89.0444,"dy":0.0017,"dx":0.0017,"nx":28,"ny":28,"refTime":"2024-10-08T21:00:00:Z","depth":"0","parameterNumber":3,"parameterNumberName":"V-component_of_CURRENTS"},"data":[0,0,0,0,0,0,0,0,0,0,0,0,0,0,0,0,0,0,0,0,0,0,0,0,0,0,0,0,0,0,0,0,0,0,0,0,0,0,0,0,0,0,0,0,0,0,0,0,0,0,0,0,0,0,0,0,0,0,-0.0321,-0.0321,0,-0.0253,-0.0252,-0.0252,-0.0201,-0.0201,-0.02,-0.02,-0.0105,-0.0103,-0.0101,0,0,0,0,0,0,0,0,0,0,0,0,0,-0.0384,-0.0383,-0.0321,-0.0321,-0.032,-0.0253,-0.0252,-0.0251,-0.0201,-0.0201,-0.02,-0.02,-0.0106,-0.0103,-0.0101,0,0,0,0,0,0,0,0,0,0,0,0,0,-0.0341,-0.0383,-0.0322,-0.0286,-0.0282,-0.0253,-0.0252,-0.0251,-0.0201,-0.0201,-0.02,-0.0199,-0.0107,-0.0104,-0.0101,-0.0096,0,0,-0.0091,-0.009,0,0,0,0,0,0,0,0,-0.0343,-0.0339,-0.0292,-0.0289,-0.0284,-0.0235,-0.024,-0.0198,-0.0202,-0.0233,-0.02,-0.0199,-0.0146,-0.014,-0.013,-0.0091,-0.0087,-0.0091,-0.0089,-0.0088,-0.0087,0,0,0,0,0,0,0,-0.0347,-0.0341,-0.0295,-0.0292,-0.0287,-0.0265,-0.0259,-0.0231,-0.0194,-0.023,-0.0226,-0.0218,-0.0144,-0.0133,-0.0127,-0.0086,-0.0091,-0.0088,-0.0086,-0.0085,-0.0013,-0.0013,0,0,0,0,0,0,-0.0356,-0.0344,-0.0297,-0.0293,-0.0312,-0.0265,-0.0258,-0.0252,-0.0195,-0.0186,-0.0219,-0.0216,-0.0138,-0.0131,-0.0123,-0.0105,-0.0088,-0.0085,-0.0083,-0.0013,-0.0013,-0.0013,0,0,0,0,0,0,-0.0358,-0.0353,-0.03,-0.0316,-0.0308,-0.0265,-0.0258,-0.0251,-0.0239,-0.0187,-0.0177,-0.0215,-0.0138,-0.0128,-0.0096,-0.0101,-0.0083,-0.008,-0.0013,-0.0013,-0.0013,-0.0073,0,0,0,0,0,0,-0.036,-0.0354,-0.0357,-0.0317,-0.0307,-0.029,-0.0259,-0.025,-0.0235,-0.023,-0.018,-0.017,-0.0136,-0.0101,-0.0093,-0.0096,-0.0078,-0.0013,-0.0013,-0.0013,-0.0071,-0.0075,-0.0079,0,0,0,0,0,-0.0362,-0.0374,-0.0358,-0.0352,-0.0312,-0.029,-0.0284,-0.0251,-0.0236,-0.0237,-0.0196,-0.0172,-0.0095,-0.0099,-0.0089,-0.0092,-0.0013,-0.0013,-0.0013,-0.007,-0.0074,-0.0079,0,0,0,0,0,0,-0.0403,-0.0368,-0.035,-0.035,-0.0324,-0.0282,-0.028,-0.0257,-0.0228,-0.0223,-0.0172,-0.016,-0.0133,-0.0105,-0.011,-0.007,-0.005,-0.0048,-0.0096,-0.01,-0.0104,-0.0109,-0.0075,0,0,0,0,0,-0.0414,-0.0412,-0.0373,-0.0373,-0.0363,-0.0323,-0.0311,-0.0289,-0.0255,-0.0241,-0.0203,-0.0162,-0.0126,-0.0108,-0.0073,-0.0055,-0.0017,-0.0049,-0.0053,-0.0056,-0.0053,0.0001,0.0002,-0.0013,-0.0013,-0.0013,0,0,-0.0428,-0.041,-0.0408,-0.0382,-0.0358,-0.0351,-0.0314,-0.0302,-0.0291,-0.0236,-0.0214,-0.0174,-0.0123,-0.0098,-0.0084,-0.0076,-0.0034,-0.0056,-0.006,-0.0054,0.0001,0.0003,0.0004,-0.0013,-0.0013,-0.0013,0,0,-0.046,-0.044,-0.0449,-0.0434,-0.0405,-0.0379,-0.0379,-0.0339,-0.0317,-0.0292,-0.0246,-0.021,-0.0161,-0.0123,-0.0097,-0.0101,-0.0054,-0.0091,-0.0115,-0.0063,-0.0061,-0.0059,-0.002,-0.0014,-0.0094,-0.0095,-0.0095,0,-0.0478,-0.0483,-0.0449,-0.0454,-0.0446,-0.0395,-0.0404,-0.0374,-0.0329,-0.0306,-0.0294,-0.0207,-0.0172,-0.0126,-0.0128,-0.011,-0.0073,-0.0106,-0.0068,-0.0065,-0.0062,-0.0022,-0.0014,-0.0097,-0.0097,-0.0097,-0.0097,0,-0.0508,-0.0518,-0.0523,-0.0509,-0.0497,-0.0498,-0.0453,-0.0432,-0.0399,-0.036,-0.0309,-0.0255,-0.0202,-0.0188,-0.0159,-0.0119,-0.0099,-0.008,-0.006,-0.0064,-0.0022,-0.0013,-0.0102,-0.0101,-0.01,-0.0099,0,0,-0.0534,-0.0544,-0.0545,-0.0558,-0.0529,-0.0524,-0.0503,-0.0464,-0.044,-0.0391,-0.0355,-0.0296,-0.0256,-0.0224,-0.0181,-0.0138,-0.0094,-0.0105,-0.0101,-0.0072,0.0018,0.0054,0.0068,-0.0065,-0.0064,-0.0063,0.0035,0,-0.0568,-0.0606,-0.0591,-0.0618,-0.0635,-0.0588,-0.057,-0.0526,-0.0474,-0.0425,-0.0353,-0.0304,-0.0271,-0.0247,-0.0199,-0.0113,-0.0072,-0.0123,0.0023,0.0028,0.0056,0.008,0.0103,0.0195,0.0044,0.0045,0.0046,0,-0.0596,-0.0624,-0.0666,-0.068,-0.0679,-0.0679,-0.0638,-0.0615,-0.0526,-0.0483,-0.0415,-0.0349,-0.0273,-0.0249,-0.0111,-0.0143,-0.0072,-0.0009,-0.0003,0.0061,0.0082,0.0178,0.0217,0.0356,0.006,0.0059,0.0058,0,-0.0636,-0.0671,-0.0712,-0.0717,-0.0719,-0.0718,-0.0704,-0.0634,-0.0605,-0.0514,-0.048,-0.0373,-0.0319,-0.0211,-0.0085,-0.0092,0.007,0.0077,0.0176,0.0179,0.0244,0.0251,0.0432,0.0171,0.017,0.017,0.017,0,-0.0679,-0.071,-0.0738,-0.0762,-0.0796,-0.077,-0.0767,-0.0728,-0.0658,-0.0621,-0.0517,-0.0468,-0.0305,-0.0191,-0.0084,0.0079,0.0073,0.0184,0.0215,0.0223,0.0226,0.0386,0.043,0.0174,0.0173,0.0172,0.0172,0,-0.0721,-0.0735,-0.0792,-0.0817,-0.0822,-0.0847,-0.0828,-0.0811,-0.0741,-0.069,-0.0664,-0.0523,-0.037,-0.0205,-0.0018,0.0082,0.0315,0.0283,0.0276,0.0305,0.0525,0.0563,0.0764,0.0828,0.0415,0.0417,0.0418,0,-0.0753,-0.0787,-0.0844,-0.0877,-0.0894,-0.0915,-0.0916,-0.0861,-0.0837,-0.0727,-0.0706,-0.0546,-0.0426,-0.0134,0.0083,0.0301,0.039,0.0442,0.0434,0.0558,0.0623,0.0647,0.0686,0.0492,0.0494,0.0496,0.0497,0,-0.0818,-0.0832,-0.0877,-0.095,-0.0978,-0.0997,-0.0996,-0.0991,-0.091,-0.0856,-0.076,-0.0656,-0.0356,-0.0085,0.0214,0.0342,0.0544,0.048,0.0623,0.0717,0.0742,0.081,0.0396,0.0511,0.0509,0.0508,0.0508,0.0507,-0.0855,-0.0909,-0.0961,-0.1023,-0.1051,-0.1066,-0.1077,-0.1055,-0.1018,-0.0921,-0.0819,-0.064,-0.0229,0.0203,0.036,0.0714,0.0671,0.0813,0.0853,0.0869,0.0928,0.0537,0.0676,0.0676,0.0675,0.0675,0.0675,0,-0.0898,-0.0951,-0.1026,-0.1086,-0.111,-0.1108,-0.1111,-0.1099,-0.1065,-0.0953,-0.084,-0.0408,0.0002,0.0385,0.0885,0.1077,0.1106,0.117,0.1219,0.1243,0.0924,0.0926,0.1108,0.1108,0.1107,0.1107,0.1107,0.1107,-0.0918,-0.0998,-0.1043,-0.1112,-0.114,-0.1152,-0.115,-0.1131,-0.1059,-0.0872,-0.0641,-0.0461,0.0118,0.0932,0.1399,0.1439,0.1577,0.157,0.1642,0.1433,0.1402,0.1373,0.139,0.1666,0.1666,0.1947,0.195,0.1952]}],[{"header":{"parameterUnit":"m.s-1","parameterCategory":2,"la1":30.2991,"la2":30.254,"lo1":-89.0895,"lo2":-89.0444,"dy":0.0017,"dx":0.0017,"nx":28,"ny":28,"refTime":"2024-10-08T21:00:00:Z","depth":"2","parameterNumber":2,"parameterNumberName":"U-component_of_CURRENTS"},"data":[0,0,0,0,0,0,0,0,0,0,0,0,0,0,0,0,0,0,0,0,0,0,0,0,0,0,0,0,0,0,0,0,0,0,0,0,0,0,0,0,0,0,0,0,0,0,0,0,0,0,0,0,0,0,0,0,0,0,-0.1934,-0.1934,0,-0.1963,-0.1963,-0.1963,-0.1924,-0.1923,-0.1922,-0.192,-0.1863,-0.1863,-0.1863,0,0,0,0,0,0,0,0,0,0,0,0,0,-0.1903,-0.1904,-0.1934,-0.1934,-0.1935,-0.1963,-0.1963,-0.1964,-0.1925,-0.1923,-0.1921,-0.192,-0.1863,-0.1863,-0.1863,0,0,0,0,0,0,0,0,0,0,0,0,0,-0.1923,-0.1904,-0.1934,-0.1919,-0.1918,-0.1963,-0.1963,-0.1964,-0.1925,-0.1923,-0.1921,-0.1919,-0.1863,-0.1863,-0.1863,-0.1902,0,0,-0.1862,-0.1861,0,0,0,0,0,0,0,0,-0.1922,-0.1924,-0.1921,-0.192,-0.1919,-0.1938,-0.1931,-0.1939,-0.1926,-0.1922,-0.192,-0.1918,-0.1882,-0.188,-0.1891,-0.19,-0.1897,-0.1862,-0.1861,-0.1861,-0.1861,0,0,0,0,0,0,0,-0.192,-0.1923,-0.1945,-0.1921,-0.192,-0.193,-0.193,-0.1933,-0.1912,-0.1922,-0.192,-0.1924,-0.188,-0.1892,-0.1889,-0.1896,-0.1862,-0.1861,-0.1861,-0.1861,-0.1929,-0.1931,0,0,0,0,0,0,-0.1916,-0.1921,-0.1944,-0.1946,-0.1915,-0.1932,-0.1932,-0.1934,-0.1913,-0.1909,-0.1925,-0.1922,-0.1893,-0.189,-0.1887,-0.1918,-0.1861,-0.1861,-0.1861,-0.1927,-0.193,-0.1932,0,0,0,0,0,0,-0.1916,-0.1918,-0.1943,-0.1934,-0.1938,-0.1935,-0.1937,-0.1936,-0.1947,-0.1917,-0.191,-0.1938,-0.1891,-0.1887,-0.19,-0.1915,-0.1861,-0.186,-0.1925,-0.1928,-0.1931,-0.1988,0,0,0,0,0,0,-0.1914,-0.1918,-0.192,-0.1934,-0.1939,-0.197,-0.1939,-0.1938,-0.1952,-0.1948,-0.1926,-0.1918,-0.1889,-0.1901,-0.19,-0.1914,-0.186,-0.1922,-0.1926,-0.193,-0.1984,-0.1993,-0.2001,0,0,0,0,0,-0.1913,-0.1928,-0.192,-0.1923,-0.1941,-0.1971,-0.1975,-0.1965,-0.1955,-0.1967,-0.1958,-0.1919,-0.1923,-0.1903,-0.1901,-0.1915,-0.192,-0.1925,-0.193,-0.198,-0.1991,-0.2,0,0,0,0,0,0,-0.1919,-0.1926,-0.1917,-0.1933,-0.1949,-0.1964,-0.1979,-0.1978,-0.1985,-0.1978,-0.1948,-0.1942,-0.1956,-0.1941,-0.1919,-0.1949,-0.1915,-0.1919,-0.1954,-0.1964,-0.1972,-0.1976,-0.186,0,0,0,0,0,-0.1922,-0.1931,-0.1943,-0.1957,-0.1967,-0.1978,-0.199,-0.1987,-0.1995,-0.1996,-0.1984,-0.1976,-0.1979,-0.1974,-0.1972,-0.1995,-0.1972,-0.2004,-0.2012,-0.2019,-0.2024,-0.2002,-0.2008,-0.1947,-0.1947,-0.1947,0,0,-0.1929,-0.1935,-0.1939,-0.1959,-0.1971,-0.1996,-0.198,-0.2005,-0.2024,-0.1989,-0.2013,-0.2006,-0.1994,-0.2012,-0.2017,-0.1997,-0.2031,-0.2025,-0.2031,-0.2032,-0.2007,-0.2013,-0.2018,-0.195,-0.1949,-0.1949,0,0,-0.1946,-0.1954,-0.1963,-0.1985,-0.2005,-0.2017,-0.2028,-0.2049,-0.2055,-0.2084,-0.2063,-0.2073,-0.2076,-0.2072,-0.207,-0.2131,-0.2077,-0.2128,-0.2167,-0.2146,-0.215,-0.2153,-0.2148,-0.215,-0.2129,-0.2129,-0.2129,0,-0.1948,-0.1965,-0.1974,-0.1996,-0.2018,-0.203,-0.2055,-0.2077,-0.2098,-0.2107,-0.2093,-0.2112,-0.2106,-0.2126,-0.2151,-0.2147,-0.2128,-0.2124,-0.2154,-0.2157,-0.2159,-0.2152,-0.2154,-0.2132,-0.2132,-0.2131,-0.2131,0,-0.1969,-0.1991,-0.2009,-0.2034,-0.2059,-0.2092,-0.2118,-0.2143,-0.2153,-0.2162,-0.2186,-0.2185,-0.2187,-0.2197,-0.2195,-0.2216,-0.2196,-0.2166,-0.2121,-0.2168,-0.2159,-0.216,-0.2137,-0.2136,-0.2135,-0.2134,0,0,-0.1947,-0.2008,-0.2013,-0.2032,-0.2085,-0.2103,-0.2153,-0.2189,-0.2204,-0.2227,-0.2242,-0.2275,-0.2262,-0.2262,-0.2255,-0.2255,-0.2271,-0.2225,-0.2222,-0.2207,-0.2231,-0.22,-0.2197,-0.2233,-0.2233,-0.2233,-0.2223,0,-0.1958,-0.2001,-0.2033,-0.2082,-0.2108,-0.215,-0.2189,-0.2222,-0.2242,-0.2261,-0.2273,-0.2281,-0.2289,-0.2283,-0.229,-0.2271,-0.2273,-0.2277,-0.2199,-0.2197,-0.2152,-0.2196,-0.2009,-0.1981,-0.2223,-0.2223,-0.2223,0,-0.1954,-0.1989,-0.2034,-0.2098,-0.2112,-0.2144,-0.2195,-0.2231,-0.227,-0.2282,-0.2298,-0.2296,-0.2322,-0.2304,-0.2302,-0.23,-0.2279,-0.2264,-0.2262,-0.221,-0.2166,-0.1972,-0.1973,-0.2224,-0.2224,-0.2224,-0.2224,0,-0.1906,-0.1983,-0.2017,-0.2043,-0.2119,-0.2145,-0.2182,-0.2229,-0.2248,-0.2284,-0.2288,-0.2311,-0.231,-0.2297,-0.2297,-0.2287,-0.228,-0.2249,-0.2205,-0.2202,-0.2017,-0.1998,-0.2236,-0.2236,-0.2237,-0.2237,-0.2237,0,-0.1891,-0.1916,-0.1999,-0.2015,-0.2051,-0.2115,-0.2139,-0.2182,-0.2225,-0.2235,-0.2284,-0.2287,-0.2304,-0.2307,-0.2298,-0.2266,-0.2276,-0.2223,-0.2197,-0.2037,-0.2021,-0.2205,-0.2201,-0.2236,-0.2236,-0.2236,-0.2236,0,-0.1817,-0.1878,-0.1917,-0.2002,-0.2022,-0.2042,-0.2102,-0.2112,-0.2176,-0.2189,-0.2199,-0.2262,-0.2275,-0.2295,-0.2279,-0.2256,-0.2231,-0.2212,-0.2042,-0.1997,-0.2166,-0.2166,-0.2152,-0.215,-0.2149,-0.2149,-0.2148,0,-0.1777,-0.1793,-0.1876,-0.1887,-0.1923,-0.1963,-0.1977,-0.2062,-0.2077,-0.2164,-0.216,-0.2208,-0.2215,-0.2216,-0.2185,-0.2161,-0.2209,-0.1967,-0.192,-0.2182,-0.2158,-0.2159,-0.2161,-0.17,-0.1696,-0.1692,-0.1689,0,-0.1696,-0.1731,-0.176,-0.1789,-0.1813,-0.1835,-0.1876,-0.1886,-0.1981,-0.2012,-0.2057,-0.2079,-0.211,-0.2014,-0.201,-0.1962,-0.196,-0.1896,-0.2183,-0.1766,-0.1759,-0.1735,-0.175,-0.1658,-0.1661,-0.1663,-0.1665,-0.1666,-0.1624,-0.1623,-0.1659,-0.1675,-0.1694,-0.1696,-0.1676,-0.1736,-0.1756,-0.1791,-0.1894,-0.1882,-0.1888,-0.1799,-0.1731,-0.1678,-0.1809,-0.1698,-0.1707,-0.172,-0.1685,-0.1677,-0.1556,-0.1558,-0.156,-0.1562,-0.1564,0,-0.1533,-0.1535,-0.1536,-0.155,-0.1515,-0.1572,-0.1585,-0.155,-0.1541,-0.1613,-0.1641,-0.1507,-0.1464,-0.1489,-0.137,-0.1356,-0.1318,-0.1283,-0.1218,-0.1249,-0.1278,-0.1219,-0.0967,-0.0965,-0.0963,-0.0962,0,0,-0.1489,-0.1452,-0.145,-0.1365,-0.1362,-0.1289,-0.1273,-0.1254,-0.1271,-0.1247,-0.1253,-0.1385,-0.1437,-0.1202,-0.1147,-0.1041,-0.1129,-0.0983,-0.1458,-0.141,-0.1437,-0.151,-0.1455,0,0,0,0,0]},{"header":{"parameterUnit":"m.s-1","parameterCategory":2,"la1":30.2991,"la2":30.254,"lo1":-89.0895,"lo2":-89.0444,"dy":0.0017,"dx":0.0017,"nx":28,"ny":28,"refTime":"2024-10-08T21:00:00:Z","depth":"2","parameterNumber":3,"parameterNumberName":"V-component_of_CURRENTS"},"data":[0,0,0,0,0,0,0,0,0,0,0,0,0,0,0,0,0,0,0,0,0,0,0,0,0,0,0,0,0,0,0,0,0,0,0,0,0,0,0,0,0,0,0,0,0,0,0,0,0,0,0,0,0,0,0,0,0,0,-0.0134,-0.0133,0,-0.007,-0.0069,-0.0068,-0.0031,-0.0031,-0.0031,-0.0031,0.0049,0.0051,0.0053,0,0,0,0,0,0,0,0,0,0,0,0,0,-0.0181,-0.0181,-0.0134,-0.0133,-0.0132,-0.007,-0.0069,-0.0068,-0.0031,-0.0031,-0.0031,-0.0031,0.0049,0.0051,0.0053,0,0,0,0,0,0,0,0,0,0,0,0,0,-0.0144,-0.0181,-0.0134,-0.0106,-0.0103,-0.007,-0.0069,-0.0068,-0.0031,-0.0031,-0.0031,-0.0031,0.0048,0.0051,0.0054,0.0067,0,0,0.0063,0.0064,0,0,0,0,0,0,0,0,-0.0146,-0.0142,-0.0111,-0.0108,-0.0105,-0.0058,-0.0056,-0.0022,-0.0031,-0.0059,-0.0031,-0.0031,0.0015,0.002,0.0032,0.0071,0.0075,0.0063,0.0065,0.0066,0.0067,0,0,0,0,0,0,0,-0.0149,-0.0144,-0.0109,-0.011,-0.0106,-0.0082,-0.0077,-0.0049,-0.0024,-0.0056,-0.0054,-0.0046,0.0017,0.0029,0.0034,0.0076,0.0063,0.0066,0.0067,0.0069,0.0141,0.0141,0,0,0,0,0,0,-0.0159,-0.0147,-0.0111,-0.0107,-0.0125,-0.0082,-0.0076,-0.0073,-0.0025,-0.0017,-0.0046,-0.0045,0.0023,0.003,0.0037,0.0052,0.0066,0.0069,0.0071,0.0141,0.0141,0.0141,0,0,0,0,0,0,-0.016,-0.0156,-0.0113,-0.0125,-0.0118,-0.0081,-0.0079,-0.0072,-0.0064,-0.0017,-0.0009,-0.0045,0.0024,0.0033,0.0061,0.0056,0.007,0.0073,0.0141,0.0141,0.0141,0.0086,0,0,0,0,0,0,-0.0162,-0.0157,-0.016,-0.0126,-0.0118,-0.01,-0.0079,-0.0071,-0.0059,-0.0057,-0.0013,-0.0005,0.0025,0.0056,0.0064,0.006,0.0075,0.0141,0.0141,0.0141,0.0088,0.0084,0.0081,0,0,0,0,0,-0.0164,-0.0171,-0.0161,-0.0157,-0.0123,-0.01,-0.0094,-0.0066,-0.006,-0.0058,-0.0026,-0.0007,0.0063,0.0059,0.0068,0.0065,0.014,0.0141,0.0141,0.0089,0.0085,0.0081,0,0,0,0,0,0,-0.0195,-0.0167,-0.0155,-0.0155,-0.0131,-0.0094,-0.0092,-0.0073,-0.0048,-0.0047,-0.0005,0.0006,0.003,0.0056,0.005,0.0088,0.0105,0.0107,0.0062,0.0059,0.0056,0.0047,0.0078,0,0,0,0,0,-0.0203,-0.0203,-0.0169,-0.017,-0.0162,-0.0129,-0.0118,-0.01,-0.0071,-0.006,-0.0029,0.0006,0.0038,0.0054,0.0087,0.0105,0.0138,0.011,0.0107,0.0104,0.0104,0.0153,0.0155,0.0142,0.0142,0.0142,0,0,-0.0216,-0.0201,-0.0201,-0.0177,-0.016,-0.0153,-0.0123,-0.0112,-0.0103,-0.0055,-0.004,-0.0005,0.0042,0.0065,0.0078,0.0085,0.0124,0.0104,0.0101,0.0103,0.0154,0.0155,0.0156,0.0142,0.0142,0.0142,0,0,-0.0241,-0.023,-0.0236,-0.0224,-0.02,-0.0177,-0.0177,-0.0144,-0.0126,-0.0104,-0.0066,-0.0034,0.0009,0.0045,0.0068,0.0067,0.0106,0.0075,0.0052,0.0099,0.01,0.0102,0.0137,0.0142,0.0073,0.0073,0.0072,0,-0.0259,-0.0264,-0.0234,-0.0239,-0.0236,-0.0193,-0.0201,-0.0174,-0.0134,-0.0117,-0.0108,-0.0033,0.0,0.0042,0.0041,0.006,0.009,0.0059,0.0094,0.0097,0.0099,0.0135,0.0141,0.007,0.007,0.007,0.0071,0,-0.0283,-0.0294,-0.0301,-0.0292,-0.028,-0.0284,-0.0244,-0.0227,-0.0203,-0.0168,-0.0125,-0.0074,-0.0028,-0.0014,0.0012,0.0048,0.0064,0.0084,0.01,0.0097,0.0135,0.0142,0.0066,0.0067,0.0068,0.0069,0,0,-0.0314,-0.0319,-0.0324,-0.0337,-0.0315,-0.0309,-0.0291,-0.0258,-0.0244,-0.0197,-0.0172,-0.0115,-0.008,-0.0051,-0.001,0.0029,0.0067,0.0057,0.0061,0.0084,0.0166,0.0196,0.0208,0.0093,0.0094,0.0095,0.0181,0,-0.0348,-0.0383,-0.0364,-0.0394,-0.0411,-0.0371,-0.0358,-0.0319,-0.0275,-0.0237,-0.0168,-0.0129,-0.0094,-0.0075,-0.0029,0.0049,0.0086,0.0042,0.0172,0.0176,0.0198,0.0218,0.0189,0.0266,0.0189,0.0191,0.0191,0,-0.0378,-0.0403,-0.0442,-0.0457,-0.0458,-0.0459,-0.0432,-0.0411,-0.0335,-0.03,-0.0239,-0.0178,-0.0107,-0.0084,0.0045,0.0016,0.0082,0.0139,0.0144,0.0199,0.0221,0.026,0.0283,0.0205,0.0204,0.0203,0.0202,0,-0.0423,-0.0455,-0.0494,-0.0502,-0.0503,-0.0506,-0.0494,-0.0434,-0.0413,-0.0336,-0.031,-0.0209,-0.016,-0.0059,0.0061,0.0056,0.0203,0.0213,0.0302,0.0305,0.032,0.0323,0.0298,0.0298,0.0298,0.0298,0.0297,0,-0.0471,-0.0503,-0.0524,-0.055,-0.0588,-0.056,-0.0567,-0.0534,-0.0476,-0.0448,-0.035,-0.0307,-0.0151,-0.0045,0.0058,0.0209,0.0205,0.0306,0.0336,0.03,0.0299,0.0279,0.0275,0.0301,0.03,0.03,0.0299,0,-0.0514,-0.0527,-0.0583,-0.0608,-0.0615,-0.0643,-0.063,-0.0622,-0.0563,-0.0522,-0.0501,-0.037,-0.0227,-0.0068,0.0107,0.0205,0.0343,0.0392,0.0335,0.0357,0.041,0.0403,0.0505,0.0507,0.0509,0.051,0.0511,0,-0.0541,-0.0575,-0.0636,-0.0671,-0.0688,-0.0715,-0.0722,-0.0675,-0.0658,-0.0562,-0.0546,-0.04,-0.0287,-0.0014,0.0186,0.0391,0.0384,0.0478,0.0467,0.0417,0.0435,0.0425,0.0416,0.0461,0.0461,0.0462,0.0462,0,-0.0599,-0.0621,-0.0669,-0.0743,-0.0778,-0.0802,-0.0807,-0.0808,-0.0737,-0.0691,-0.0605,-0.0507,-0.0234,-0.0002,0.0274,0.0386,0.0447,0.0496,0.0474,0.0412,0.0382,0.0397,0.0388,0.0467,0.0466,0.0466,0.0466,0.0466,-0.0641,-0.0695,-0.0755,-0.0819,-0.0855,-0.0876,-0.089,-0.0872,-0.0844,-0.0752,-0.0659,-0.0491,-0.0253,0.014,0.0328,0.051,0.0512,0.0556,0.0551,0.0546,0.0525,0.05,0.0602,0.0603,0.0603,0.0603,0.0603,0,-0.0688,-0.0746,-0.0819,-0.0889,-0.0919,-0.0921,-0.093,-0.0916,-0.0885,-0.0779,-0.0671,-0.0409,-0.0135,0.0109,0.0405,0.0581,0.0558,0.0599,0.0535,0.053,0.0525,0.05,0.0573,0.0573,0.0573,0.0573,0,0,-0.0717,-0.0799,-0.084,-0.0919,-0.0954,-0.0975,-0.0977,-0.0946,-0.0874,-0.0771,-0.0637,-0.044,-0.0134,0.0066,0.0287,0.0436,0.043,0.0445,0.0454,0.0346,0.0339,0.0489,0.0444,0,0,0,0,0]}],[{"header":{"parameterUnit":"m.s-1","parameterCategory":2,"la1":30.2991,"la2":30.254,"lo1":-89.0895,"lo2":-89.0444,"dy":0.0017,"dx":0.0017,"nx":28,"ny":28,"refTime":"2024-10-08T21:00:00:Z","depth":"4","parameterNumber":2,"parameterNumberName":"U-component_of_CURRENTS"},"data":[0,0,0,0,0,0,0,0,0,0,0,0,0,0,0,0,0,0,0,0,0,0,0,0,0,0,0,0,0,0,0,0,0,0,0,0,0,0,0,0,0,0,0,0,0,0,0,0,0,0,0,0,0,0,0,0,0,0,-0.1273,-0.1274,0,-0.1286,-0.1286,-0.1286,-0.1318,-0.1319,-0.132,-0.1321,-0.1369,-0.137,-0.137,0,0,0,0,0,0,0,0,0,0,0,0,0,-0.1191,-0.1193,-0.1273,-0.1274,-0.1274,-0.1286,-0.1286,-0.1286,-0.1318,-0.1319,-0.1321,-0.1322,-0.1369,-0.137,-0.137,0,0,0,0,0,0,0,0,0,0,0,0,0,-0.1215,-0.1193,-0.1273,-0.1294,-0.1297,-0.1286,-0.1286,-0.1286,-0.1318,-0.1319,-0.1321,-0.1322,-0.1369,-0.137,-0.137,-0.1343,0,0,-0.1372,-0.1372,0,0,0,0,0,0,0,0,-0.1214,-0.1217,-0.1291,-0.1293,-0.1295,-0.1305,-0.1275,-0.1308,-0.1318,-0.1306,-0.1321,-0.1323,-0.1352,-0.1354,-0.1348,-0.1346,-0.1348,-0.1372,-0.1372,-0.1372,-0.1372,0,0,0,0,0,0,0,-0.1212,-0.1217,-0.1275,-0.1291,-0.1294,-0.1274,-0.128,-0.1281,-0.1319,-0.1307,-0.1311,-0.1317,-0.1354,-0.1347,-0.135,-0.1348,-0.1372,-0.1372,-0.1372,-0.1373,-0.1397,-0.1398,0,0,0,0,0,0,-0.122,-0.1216,-0.1275,-0.1276,-0.1261,-0.1275,-0.1281,-0.1298,-0.1318,-0.1323,-0.1316,-0.1318,-0.1346,-0.1349,-0.1351,-0.1406,-0.1372,-0.1373,-0.1373,-0.1397,-0.1397,-0.1398,0,0,0,0,0,0,-0.1219,-0.1226,-0.1274,-0.1248,-0.1253,-0.1276,-0.1294,-0.1297,-0.1316,-0.1325,-0.133,-0.1334,-0.1347,-0.1351,-0.1368,-0.1405,-0.1373,-0.1373,-0.1397,-0.1397,-0.1398,-0.1461,0,0,0,0,0,0,-0.1216,-0.1225,-0.1239,-0.1249,-0.1255,-0.1279,-0.1293,-0.1297,-0.1317,-0.1322,-0.1341,-0.1346,-0.1348,-0.1367,-0.1368,-0.1405,-0.1374,-0.1396,-0.1397,-0.1397,-0.1459,-0.1464,-0.1468,0,0,0,0,0,-0.1213,-0.122,-0.124,-0.1247,-0.1275,-0.128,-0.128,-0.1298,-0.1317,-0.1321,-0.1337,-0.1347,-0.1372,-0.1367,-0.1369,-0.1407,-0.1396,-0.1397,-0.1397,-0.1457,-0.1463,-0.1468,0,0,0,0,0,0,-0.1186,-0.1225,-0.1247,-0.1265,-0.1281,-0.1287,-0.1292,-0.1307,-0.1321,-0.1334,-0.1345,-0.1349,-0.1381,-0.1374,-0.1368,-0.1413,-0.1388,-0.1389,-0.1432,-0.1438,-0.1443,-0.1437,-0.1374,0,0,0,0,0,-0.119,-0.1213,-0.1239,-0.1256,-0.1266,-0.1284,-0.1291,-0.1307,-0.132,-0.1329,-0.1347,-0.1363,-0.1378,-0.1393,-0.1398,-0.1418,-0.1415,-0.1443,-0.1448,-0.1452,-0.1446,-0.1481,-0.149,-0.14,-0.14,-0.14,0,0,-0.1186,-0.121,-0.1224,-0.1253,-0.1268,-0.1286,-0.1292,-0.1309,-0.1335,-0.1331,-0.1371,-0.138,-0.1384,-0.1412,-0.1427,-0.1418,-0.1474,-0.1453,-0.1457,-0.1448,-0.1483,-0.1492,-0.15,-0.1401,-0.1401,-0.1401,0,0,-0.1182,-0.1212,-0.123,-0.1247,-0.1278,-0.129,-0.1303,-0.1327,-0.1349,-0.1377,-0.1389,-0.1416,-0.1436,-0.1453,-0.1462,-0.149,-0.1496,-0.1499,-0.1526,-0.1562,-0.157,-0.1577,-0.1582,-0.159,-0.1506,-0.1506,-0.1506,0,-0.118,-0.1209,-0.1231,-0.1252,-0.1275,-0.1299,-0.1323,-0.1341,-0.1371,-0.1397,-0.1401,-0.145,-0.1457,-0.1499,-0.1508,-0.1506,-0.1513,-0.1511,-0.1571,-0.1578,-0.1584,-0.1588,-0.1595,-0.1509,-0.1508,-0.1508,-0.1508,0,-0.1186,-0.1217,-0.1226,-0.1274,-0.1295,-0.1316,-0.1354,-0.1385,-0.142,-0.1445,-0.1498,-0.1505,-0.154,-0.1549,-0.1536,-0.1588,-0.1573,-0.1574,-0.1562,-0.1597,-0.1598,-0.1604,-0.1513,-0.1512,-0.1511,-0.1511,0,0,-0.1166,-0.1224,-0.1231,-0.1264,-0.1314,-0.1334,-0.1383,-0.1433,-0.1484,-0.1512,-0.1573,-0.1593,-0.1609,-0.1616,-0.1619,-0.1639,-0.1686,-0.1624,-0.1624,-0.1638,-0.1748,-0.163,-0.1625,-0.1706,-0.1708,-0.1709,-0.173,0,-0.117,-0.1213,-0.1246,-0.1299,-0.1325,-0.1376,-0.1425,-0.1477,-0.1526,-0.1587,-0.1611,-0.166,-0.1634,-0.1663,-0.1681,-0.1685,-0.1705,-0.1678,-0.1702,-0.1702,-0.1602,-0.163,-0.1714,-0.1734,-0.1736,-0.1737,-0.1738,0,-0.1165,-0.1198,-0.1246,-0.133,-0.135,-0.1392,-0.1489,-0.1536,-0.1618,-0.1659,-0.1711,-0.1732,-0.1767,-0.1743,-0.1772,-0.1759,-0.1755,-0.1749,-0.1751,-0.162,-0.1595,-0.1691,-0.1748,-0.1748,-0.1747,-0.1746,-0.1745,0,-0.1129,-0.1203,-0.1247,-0.1272,-0.1361,-0.1411,-0.147,-0.156,-0.1612,-0.1709,-0.1751,-0.1804,-0.1831,-0.1844,-0.1823,-0.1813,-0.1843,-0.1836,-0.1725,-0.1716,-0.179,-0.1782,-0.1862,-0.1862,-0.1862,-0.1862,-0.1862,0,-0.1108,-0.1143,-0.1241,-0.1261,-0.1336,-0.141,-0.15,-0.1567,-0.1664,-0.1714,-0.1785,-0.1813,-0.1857,-0.1873,-0.1856,-0.1797,-0.1878,-0.1723,-0.1716,-0.1813,-0.1808,-0.1794,-0.1786,-0.1863,-0.1863,-0.1863,-0.1862,0,-0.104,-0.1105,-0.116,-0.1271,-0.1315,-0.1368,-0.1502,-0.156,-0.166,-0.1726,-0.1755,-0.1831,-0.1842,-0.1866,-0.1883,-0.1819,-0.1793,-0.1757,-0.1847,-0.1846,-0.1633,-0.1628,-0.1632,-0.1628,-0.1625,-0.1622,-0.162,0,-0.1001,-0.1022,-0.1151,-0.1196,-0.1247,-0.1345,-0.141,-0.1539,-0.1587,-0.1706,-0.1715,-0.1774,-0.1803,-0.173,-0.1771,-0.1747,-0.1722,-0.1701,-0.1664,-0.1618,-0.1612,-0.1612,-0.1611,-0.1615,-0.1614,-0.1613,-0.1612,0,-0.0919,-0.0977,-0.1025,-0.1119,-0.1198,-0.1282,-0.1378,-0.1402,-0.1529,-0.1631,-0.163,-0.1633,-0.1643,-0.1643,-0.164,-0.1619,-0.1712,-0.1666,-0.1672,-0.1638,-0.1597,-0.1594,-0.1597,-0.1601,-0.1602,-0.1603,-0.1604,0,-0.0859,-0.0873,-0.0955,-0.103,-0.1126,-0.1183,-0.1253,-0.1306,-0.1369,-0.1492,-0.1482,-0.1544,-0.1618,-0.1576,-0.1571,-0.1546,-0.1516,-0.1461,-0.1477,-0.1491,-0.1433,-0.136,-0.1282,0,0,0,0,0,-0.0795,-0.0805,-0.0863,-0.0947,-0.104,-0.1098,-0.1214,-0.1282,-0.1394,-0.1353,-0.1415,-0.1416,-0.1406,-0.1442,-0.1384,-0.1506,-0.1525,-0.1433,-0.1471,-0.1537,-0.155,-0.1495,0,0,0,0,0,0,-0.075,-0.079,-0.0822,-0.0863,-0.0901,-0.0993,-0.1059,-0.114,-0.1128,-0.1238,-0.1239,-0.1323,-0.1335,-0.1412,-0.1351,-0.1362,-0.1355,-0.1481,-0.1477,-0.1529,-0.1541,-0.1552,-0.15,0,0,0,0,0]},{"header":{"parameterUnit":"m.s-1","parameterCategory":2,"la1":30.2991,"la2":30.254,"lo1":-89.0895,"lo2":-89.0444,"dy":0.0017,"dx":0.0017,"nx":28,"ny":28,"refTime":"2024-10-08T21:00:00:Z","depth":"4","parameterNumber":3,"parameterNumberName":"V-component_of_CURRENTS"},"data":[0,0,0,0,0,0,0,0,0,0,0,0,0,0,0,0,0,0,0,0,0,0,0,0,0,0,0,0,0,0,0,0,0,0,0,0,0,0,0,0,0,0,0,0,0,0,0,0,0,0,0,0,0,0,0,0,0,0,0.0017,0.0018,0,0.0069,0.007,0.0071,0.009,0.009,0.009,0.009,0.0143,0.0144,0.0146,0,0,0,0,0,0,0,0,0,0,0,0,0,0.0,0.0,0.0017,0.0018,0.0019,0.0069,0.007,0.0071,0.009,0.009,0.009,0.009,0.0142,0.0144,0.0146,0,0,0,0,0,0,0,0,0,0,0,0,0,0.0025,-0.0,0.0017,0.0034,0.0036,0.0069,0.007,0.0071,0.009,0.009,0.009,0.009,0.0141,0.0144,0.0146,0.0166,0,0,0.0153,0.0154,0,0,0,0,0,0,0,0,0.0024,0.0026,0.0031,0.0033,0.0036,0.0073,0.0083,0.0103,0.009,0.007,0.009,0.009,0.012,0.0124,0.0134,0.0168,0.017,0.0153,0.0155,0.0156,0.0157,0,0,0,0,0,0,0,0.0022,0.0024,0.0038,0.0032,0.0035,0.0062,0.0065,0.0088,0.0096,0.0072,0.0073,0.0079,0.0121,0.0132,0.0136,0.0171,0.0153,0.0155,0.0157,0.0158,0.0226,0.0227,0,0,0,0,0,0,0.0012,0.0022,0.0036,0.004,0.0029,0.0062,0.0065,0.0061,0.0095,0.01,0.0079,0.008,0.0128,0.0133,0.0137,0.0156,0.0156,0.0158,0.0159,0.0226,0.0227,0.0227,0,0,0,0,0,0,0.0011,0.0012,0.0034,0.0033,0.0037,0.0062,0.0058,0.0062,0.0073,0.0101,0.0106,0.0084,0.0128,0.0134,0.0159,0.0158,0.0159,0.0161,0.0226,0.0226,0.0227,0.0196,0,0,0,0,0,0,0.001,0.0012,0.0009,0.0032,0.0037,0.005,0.0058,0.0064,0.0077,0.0078,0.0107,0.0112,0.0128,0.0155,0.0161,0.0161,0.0163,0.0225,0.0226,0.0227,0.0197,0.0196,0.0195,0,0,0,0,0,0.001,0.0008,0.0008,0.0011,0.0031,0.005,0.0055,0.0073,0.0077,0.0081,0.0103,0.0111,0.0164,0.0157,0.0164,0.0165,0.0225,0.0226,0.0227,0.0197,0.0196,0.0195,0,0,0,0,0,0,0.0004,0.001,0.0011,0.0012,0.0027,0.0053,0.0061,0.0072,0.0093,0.0093,0.0118,0.0125,0.0145,0.0163,0.0155,0.0189,0.0195,0.0198,0.0171,0.017,0.0169,0.0155,0.0165,0,0,0,0,0,-0.0001,-0.0004,0.001,0.0012,0.0016,0.0037,0.0048,0.0057,0.0078,0.0087,0.0109,0.0133,0.0155,0.0168,0.019,0.0211,0.0228,0.0216,0.0215,0.0214,0.0209,0.024,0.0241,0.023,0.023,0.023,0,0,-0.0002,0.0002,0.0001,0.001,0.0022,0.0023,0.0043,0.0055,0.0059,0.009,0.0105,0.013,0.016,0.018,0.0191,0.0195,0.0228,0.0215,0.0214,0.0209,0.0241,0.0242,0.0243,0.0231,0.0231,0.0231,0,0,-0.0008,-0.0005,-0.0012,-0.0006,0.0006,0.0018,0.0019,0.004,0.0053,0.0071,0.0094,0.012,0.0153,0.0176,0.0192,0.0202,0.022,0.0208,0.0194,0.0224,0.0225,0.0226,0.0249,0.0253,0.0209,0.0209,0.0209,0,-0.0012,-0.0022,-0.0008,-0.0014,-0.0015,0.0011,0.0001,0.0021,0.0049,0.0059,0.007,0.0123,0.0151,0.0177,0.0181,0.0198,0.0216,0.0193,0.0222,0.0223,0.0224,0.0249,0.0252,0.0208,0.0208,0.0208,0.0208,0,-0.0026,-0.0035,-0.0037,-0.0044,-0.0039,-0.0041,-0.0022,-0.0011,0.0006,0.0027,0.0057,0.0101,0.013,0.0147,0.0168,0.0193,0.0202,0.0214,0.022,0.0223,0.0249,0.0254,0.0206,0.0206,0.0207,0.0207,0,0,-0.004,-0.0049,-0.0052,-0.007,-0.0061,-0.0064,-0.0054,-0.0041,-0.0041,0.0002,0.0011,0.0065,0.009,0.011,0.0144,0.0177,0.0207,0.0197,0.0199,0.0212,0.0269,0.0259,0.0264,0.0223,0.0224,0.0224,0.0282,0,-0.0061,-0.009,-0.0084,-0.0113,-0.0129,-0.0112,-0.0109,-0.0092,-0.0066,-0.0046,0.0011,0.0034,0.0076,0.0088,0.0128,0.0188,0.0218,0.019,0.027,0.0273,0.0257,0.0268,0.0226,0.0285,0.0287,0.0287,0.0288,0,-0.0081,-0.0103,-0.0137,-0.0165,-0.0171,-0.0181,-0.0186,-0.0179,-0.0136,-0.0115,-0.0072,-0.0027,0.0033,0.0063,0.0166,0.0145,0.02,0.0248,0.0252,0.0255,0.0272,0.0283,0.0297,0.0296,0.0295,0.0295,0.0294,0,-0.011,-0.0142,-0.0176,-0.0186,-0.0205,-0.0219,-0.0226,-0.0201,-0.0201,-0.0157,-0.0147,-0.0069,-0.003,0.0053,0.0162,0.0161,0.0273,0.0285,0.0327,0.0327,0.0331,0.0329,0.0347,0.0347,0.0347,0.0347,0.0347,0,-0.0135,-0.0162,-0.0198,-0.0219,-0.027,-0.0263,-0.0298,-0.0286,-0.0266,-0.0262,-0.0188,-0.0163,-0.0031,0.0053,0.0146,0.0254,0.0263,0.0324,0.0342,0.0318,0.0314,0.0334,0.0332,0.0349,0.0349,0.0348,0.0348,0,-0.0147,-0.0167,-0.022,-0.0265,-0.0284,-0.0321,-0.0358,-0.0375,-0.0345,-0.0337,-0.0324,-0.0228,-0.0115,0.0017,0.0159,0.0228,0.0333,0.0366,0.0327,0.0342,0.0369,0.0365,0.0413,0.0413,0.0414,0.0414,0.0414,0,-0.0148,-0.0174,-0.0262,-0.031,-0.0335,-0.0388,-0.0422,-0.0418,-0.0425,-0.0374,-0.0367,-0.0262,-0.0183,0.0012,0.0146,0.0319,0.0342,0.0389,0.0383,0.0364,0.0377,0.0372,0.0368,0.0414,0.0414,0.0414,0.0414,0,-0.0156,-0.0192,-0.0246,-0.035,-0.0411,-0.0474,-0.0513,-0.0523,-0.0499,-0.0474,-0.0396,-0.0284,-0.0158,0.0004,0.0141,0.0263,0.0356,0.0391,0.0391,0.0386,0.0365,0.0377,0.0372,0.0415,0.0415,0.0414,0.0414,0,-0.0163,-0.0211,-0.0293,-0.0387,-0.0472,-0.0534,-0.0553,-0.0551,-0.0549,-0.0474,-0.045,-0.0302,-0.0208,-0.0026,0.0099,0.0223,0.025,0.028,0.0287,0.0288,0.0237,0.0191,0.0202,0,0,0,0,0,-0.0163,-0.0227,-0.0323,-0.0433,-0.052,-0.0562,-0.0602,-0.0603,-0.0574,-0.0525,-0.0482,-0.036,-0.0159,-0.0073,0.0049,0.0092,0.0262,0.0235,0.0298,0.0417,0.0417,0.0377,0,0,0,0,0,0,-0.017,-0.0251,-0.0323,-0.0452,-0.0526,-0.0607,-0.0632,-0.0612,-0.0576,-0.0526,-0.0419,-0.0343,-0.015,-0.0226,0.0048,0.0085,0.0137,0.0337,0.0339,0.0417,0.0417,0.0417,0.0376,0,0,0,0,0]}]]